{"data":{"norad_id":63132,"intl_designator":"2025-043A","name":"STARLINK-11609 [DTC]","alt_names":[],"object_type":"PAYLOAD","status":"ACTIVE","operator":null,"country":"US","launch_date":"2025-03-03","launch_site_code":"AFETR","launch_vehicle":null,"mission":null,"orbit_class":"UNKNOWN","rcs_meters":null,"size_class":null,"mass_kg":null,"dimensions":null,"purposes":["comms"],"wikipedia_slug":null,"has_3d_model":false,"image_url":null,"decayed_at":null,"tle_current":{"epoch":"2026-09-20T17:11:57.081696Z","epoch_age_seconds":143590,"freshness":"FRESH","line1":"1 63132U 25043A   26263.71663289  .00184770  00000+0  14086-2 0  9997","line2":"2 63132  43.0028 155.2634 0002738 263.4061  96.6495 15.70890179 90131","mean_motion":15.70890179,"eccentricity":0.0002738,"inclination_deg":43.0028,"raan_deg":155.2634,"arg_perigee_deg":263.4061,"mean_anomaly_deg":96.6495,"bstar":0.0014086,"rev_number":9013,"period_min":91.667770239462,"perigee_km":354.50774142233,"apogee_km":358.19554740401,"semimajor_km":6734.4886444132,"source":"CELESTRAK","updated_at":"2026-09-22T09:00:49.789605Z"}}}